| time (UTC) | temp F | wind direction | speed MPH | gust MPH | rain 1hr in | rain 24hr in | rain mn in | humidity % | barometer mb |
| 20260503031608 | 52 | 0 | 0.0 | 0.0 | 0.00 | 0.25 | 0.08 | 92 | 1011.2 |
| 20260503024557 | 52 | 0 | 0.0 | 0.0 | 0.01 | 0.25 | 0.08 | 92 | 1011.3 |
| 20260503023056 | 53 | 0 | 0.0 | 0.0 | 0.01 | 0.25 | 0.08 | 91 | 1011.5 |
| 20260503021555 | 52 | 0 | 0.0 | 0.0 | 0.02 | 0.25 | 0.08 | 93 | 1011.4 |
| 20260503020059 | 52 | 0 | 0.0 | 0.0 | 0.02 | 0.25 | 0.08 | 91 | 1011.5 |
| 20260503014558 | 52 | 0 | 0.0 | 0.0 | 0.00 | 0.23 | 0.07 | 91 | 1011.4 |
| 20260503013056 | 52 | 0 | 0.0 | 0.0 | 0.00 | 0.23 | 0.07 | 91 | 1011.1 |
| 20260503011605 | 53 | 0 | 0.0 | 0.0 | 0.00 | 0.22 | 0.06 | 90 | 1011.0 |
| 20260503010052 | 53 | 0 | 0.0 | 0.0 | 0.00 | 0.22 | 0.06 | 88 | 1011.0 |
| 20260503004549 | 53 | 0 | 0.0 | 0.0 | 0.00 | 0.22 | 0.06 | 87 | 1010.9 |
| 20260503003052 | 52 | 0 | 0.0 | 0.0 | 0.00 | 0.22 | 0.06 | 90 | 1011.0 |
| 20260503001554 | 51 | 0 | 0.0 | 0.0 | 0.00 | 0.25 | 0.06 | 92 | 1011.0 |
| 20260503000107 | 51 | 0 | 0.0 | 0.0 | 0.00 | 0.25 | 0.06 | 92 | 1011.1 |
| 20260502234551 | 51 | 0 | 0.0 | 0.0 | 0.00 | 0.25 | 0.06 | 90 | 1011.0 |
| 20260502233055 | 52 | 0 | 0.0 | 0.0 | 0.00 | 0.25 | 0.06 | 90 | 1011.2 |
| 20260502231614 | 51 | 0 | 0.0 | 0.0 | 0.00 | 0.25 | 0.06 | 90 | 1011.0 |
| 20260502230051 | 50 | 0 | 0.0 | 0.0 | 0.00 | 0.25 | 0.06 | 92 | 1010.9 |
| 20260502224558 | 50 | 0 | 0.0 | 0.0 | 0.00 | 0.25 | 0.06 | 94 | 1011.2 |
| 20260502223054 | 49 | 0 | 0.0 | 0.0 | 0.00 | 0.25 | 0.06 | 94 | 1011.0 |
| 20260502221557 | 49 | 0 | 0.0 | 0.0 | 0.03 | 0.25 | 0.06 | 94 | 1011.4 |
| 20260502220053 | 49 | 0 | 0.0 | 0.0 | 0.04 | 0.25 | 0.06 | 95 | 1011.1 |
| 20260502214552 | 49 | 0 | 0.0 | 0.0 | 0.05 | 0.25 | 0.06 | 95 | 1011.0 |
| 20260502213053 | 49 | 0 | 0.0 | 0.0 | 0.04 | 0.24 | 0.05 | 94 | 1010.8 |
| 20260502211559 | 49 | 0 | 0.0 | 0.0 | 0.01 | 0.21 | 0.02 | 93 | 1010.9 |
| 20260502210054 | 50 | 0 | 0.0 | 0.0 | 0.00 | 0.19 | 0.00 | 93 | 1011.0 |
| 20260502204552 | 49 | 0 | 0.0 | 0.0 | 0.00 | 0.19 | 0.00 | 94 | 1010.8 |
| 20260502203053 | 49 | 0 | 0.0 | 0.0 | 0.00 | 0.19 | 0.00 | 94 | 1010.9 |
| 20260502201550 | 50 | 0 | 0.0 | 0.0 | 0.00 | 0.19 | 0.00 | 95 | 1011.1 |
| 20260502200052 | 50 | 0 | 0.0 | 0.0 | 0.00 | 0.18 | 0.00 | 94 | 1011.1 |
| 20260502194559 | 50 | 0 | 0.0 | 0.0 | 0.00 | 0.18 | 0.00 | 94 | 1011.0 |
| 20260502193108 | 50 | 0 | 0.0 | 0.0 | 0.00 | 0.18 | 0.00 | 94 | 1010.9 |
| 20260502191601 | 51 | 0 | 0.0 | 0.0 | 0.00 | 0.18 | 0.00 | 94 | 1010.9 |
| 20260502190054 | 51 | 0 | 0.0 | 0.0 | 0.00 | 0.18 | 0.00 | 94 | 1010.9 |
| 20260502184559 | 51 | 0 | 0.0 | 0.0 | 0.00 | 0.18 | 0.00 | 93 | 1010.9 |
| 20260502183055 | 51 | 0 | 0.0 | 0.0 | 0.00 | 0.18 | 0.00 | 93 | 1010.7 |
| 20260502181557 | 51 | 0 | 0.0 | 0.0 | 0.00 | 0.18 | 0.00 | 93 | 1010.8 |
| 20260502163055 | 52 | 0 | 0.0 | 0.0 | 0.00 | 0.18 | 0.00 | 93 | 1011.2 |
| 20260502161621 | 52 | 0 | 0.0 | 0.0 | 0.00 | 0.18 | 0.00 | 92 | 1011.2 |
| 20260502160125 | 52 | 0 | 0.0 | 0.0 | 0.00 | 0.18 | 0.00 | 90 | 1011.3 |
| 20260502151600 | 52 | 0 | 0.0 | 0.0 | 0.00 | 0.18 | 0.00 | 90 | 1011.6 |
| 20260502130116 | 53 | 0 | 0.0 | 0.0 | 0.00 | 0.18 | 0.18 | 93 | 1012.5 |
| 20260502123126 | 53 | 0 | 0.0 | 0.0 | 0.00 | 0.18 | 0.18 | 94 | 1012.6 |
| 20260502121604 | 53 | 0 | 0.0 | 0.0 | 0.00 | 0.18 | 0.18 | 93 | 1012.7 |
| 20260502120126 | 53 | 0 | 0.0 | 0.0 | 0.00 | 0.18 | 0.18 | 93 | 1012.5 |
| 20260502114558 | 53 | 0 | 0.0 | 0.0 | 0.00 | 0.18 | 0.18 | 93 | 1012.5 |
| 20260502113057 | 53 | 0 | 0.0 | 0.0 | 0.00 | 0.18 | 0.18 | 93 | 1012.4 |
| 20260502111555 | 53 | 0 | 0.0 | 0.0 | 0.00 | 0.18 | 0.18 | 93 | 1012.3 |
| 20260502110054 | 53 | 0 | 0.0 | 0.0 | 0.00 | 0.18 | 0.18 | 93 | 1012.3 |
| 20260502104555 | 53 | 0 | 0.0 | 0.0 | 0.00 | 0.18 | 0.18 | 94 | 1012.2 |
| 20260502103055 | 53 | 0 | 0.0 | 0.0 | 0.00 | 0.18 | 0.18 | 94 | 1012.1 |
| 20260502101559 | 53 | 0 | 0.0 | 0.0 | 0.00 | 0.18 | 0.18 | 95 | 1012.1 |
| 20260502070057 | 53 | 0 | 0.0 | 0.0 | 0.01 | 0.18 | 0.18 | 96 | 1011.4 |
| 20260502064555 | 54 | 0 | 0.0 | 0.0 | 0.01 | 0.18 | 0.18 | 96 | 1011.4 |
| 20260502063101 | 54 | 0 | 0.0 | 0.0 | 0.01 | 0.17 | 0.17 | 96 | 1011.0 |
| 20260502061555 | 54 | 0 | 0.0 | 0.0 | 0.01 | 0.17 | 0.17 | 96 | 1010.6 |
| 20260502060109 | 54 | 0 | 0.0 | 0.0 | 0.03 | 0.17 | 0.17 | 96 | 1010.8 |
| 20260502054553 | 54 | 0 | 0.0 | 0.0 | 0.06 | 0.16 | 0.16 | 95 | 1010.8 |
| 20260502053055 | 55 | 0 | 0.0 | 0.0 | 0.06 | 0.15 | 0.15 | 95 | 1010.6 |
| 20260502051555 | 55 | 0 | 0.0 | 0.0 | 0.07 | 0.15 | 0.15 | 95 | 1010.8 |
| 20260502050057 | 55 | 0 | 0.0 | 0.0 | 0.08 | 0.14 | 0.14 | 95 | 1011.2 |
| 20260502044556 | 55 | 0 | 0.0 | 0.0 | 0.04 | 0.10 | 0.10 | 95 | 1011.0 |
| 20260502043100 | 56 | 0 | 0.0 | 0.0 | 0.05 | 0.09 | 0.09 | 94 | 1011.0 |
| 20260502041559 | 56 | 0 | 0.0 | 0.0 | 0.06 | 0.08 | 0.08 | 94 | 1010.8 |
| 20260502040106 | 56 | 0 | 0.0 | 0.0 | 0.03 | 0.05 | 0.05 | 93 | 1011.2 |
| 20260502034602 | 57 | 0 | 0.0 | 0.0 | 0.03 | 0.05 | 0.05 | 91 | 1011.0 |
| 20260502033052 | 58 | 0 | 0.0 | 0.0 | 0.01 | 0.03 | 0.03 | 89 | 1011.2 |